[[{"header":{"parameterUnit":"m.s-1","parameterCategory":1,"la1":30.2991,"la2":30.254,"lo1":-89.0895,"lo2":-89.0444,"dy":0.0017,"dx":0.0017,"nx":28,"ny":28,"refTime":"2025-06-06T21:00:00:Z","depth":0,"parameterNumber":2,"parameterNumberName":"U-component_of_WINDS"},"data":[0,0,0,0,0,0,0,0,0,0,0,0,0,0,0,0,0,0,0,0,0,0,0,0,0,0,0,0,0,0,0,0,0,0,0,0,0,0,0,0,0,0,0,0,0,0,0,0,0,0,0,0,0,0,0,0,0,0,4.5845,4.5847,0,4.6008,4.601,4.6012,4.5979,4.5976,4.5973,4.597,4.6137,4.6144,4.6151,0,0,0,0,0,0,0,0,0,0,0,0,0,4.5504,4.5511,4.5845,4.5847,4.5849,4.6008,4.601,4.6012,4.5979,4.5976,4.5972,4.5969,4.6135,4.6143,4.6152,0,0,0,0,0,0,0,0,0,0,0,0,0,4.5658,4.5513,4.5845,4.5852,4.5854,4.6007,4.601,4.6013,4.598,4.5976,4.5971,4.5967,4.6132,4.6142,4.6153,4.6309,0,0,4.6186,4.6191,0,0,0,0,0,0,0,0,4.565,4.5671,4.5849,4.5852,4.5854,4.5968,4.5951,4.6112,4.5981,4.5932,4.597,4.5965,4.6085,4.6099,4.6139,4.6317,4.6324,4.6187,4.6194,4.6199,4.6202,0,0,0,0,0,0,0,4.5639,4.5664,4.5909,4.5851,4.5855,4.5846,4.5863,4.5981,4.6032,4.5936,4.5934,4.5954,4.6085,4.6129,4.6143,4.6327,4.6187,4.6197,4.6203,4.6208,4.6637,4.6642,0,0,0,0,0,0,4.5626,4.5655,4.5904,4.5914,4.5739,4.5856,4.5875,4.5936,4.603,4.604,4.5957,4.5952,4.6113,4.6131,4.6149,4.6335,4.6198,4.6209,4.6215,4.6632,4.6638,4.6644,0,0,0,0,0,0,4.5619,4.5648,4.5898,4.5784,4.5815,4.5867,4.5936,4.5942,4.5985,4.6046,4.6055,4.5993,4.611,4.6134,4.6269,4.634,4.6213,4.6223,4.6627,4.6634,4.6641,4.671,0,0,0,0,0,0,4.5609,4.5646,4.5706,4.5786,4.5821,4.6016,4.594,4.5948,4.6004,4.5998,4.6082,4.6091,4.6108,4.6253,4.628,4.6353,4.6232,4.662,4.663,4.6639,4.6702,4.6719,4.6734,0,0,0,0,0,4.5597,4.572,4.571,4.574,4.5898,4.602,4.604,4.6057,4.601,4.6071,4.6109,4.6089,4.6329,4.6267,4.6297,4.6375,4.6616,4.6627,4.6638,4.6694,4.6715,4.6733,0,0,0,0,0,0,4.5649,4.5731,4.572,4.5873,4.5939,4.6014,4.6091,4.6079,4.6161,4.6152,4.6169,4.6188,4.6325,4.6364,4.6294,4.6529,4.6466,4.6483,4.6498,4.6519,4.6534,4.6521,4.6241,0,0,0,0,0,4.5678,4.577,4.5837,4.5965,4.5999,4.6039,4.6093,4.61,4.617,4.6198,4.6247,4.6315,4.6405,4.6465,4.6552,4.6708,4.6724,4.6776,4.6792,4.6805,4.6819,4.6901,4.6923,4.668,4.668,4.668,0,0,4.5739,4.5795,4.5852,4.5977,4.6029,4.6123,4.6063,4.6166,4.6235,4.6214,4.6343,4.6381,4.6459,4.6604,4.6671,4.6641,4.689,4.6819,4.6829,4.6836,4.6914,4.6937,4.6958,4.6688,4.6686,4.6685,0,0,4.5897,4.595,4.6061,4.6115,4.6194,4.622,4.6247,4.6323,4.6347,4.6478,4.6462,4.6545,4.6702,4.6756,4.6805,4.6982,4.6965,4.701,4.7093,4.7172,4.7191,4.7208,4.7268,4.729,4.7024,4.7025,4.7025,0,4.5963,4.6104,4.612,4.6223,4.6277,4.6261,4.6372,4.6424,4.6528,4.6565,4.6531,4.6724,4.6776,4.6932,4.6975,4.7016,4.7045,4.6999,4.7188,4.7205,4.7221,4.7278,4.7301,4.7029,4.7029,4.7028,4.7028,0,4.6179,4.6277,4.6357,4.6456,4.652,4.6627,4.6658,4.672,4.6722,4.6751,4.6882,4.6943,4.704,4.7079,4.7082,4.7235,4.7213,4.7183,4.7119,4.7248,4.7302,4.7325,4.7036,4.7034,4.7033,4.7032,0,0,4.6374,4.6479,4.6508,4.6552,4.6638,4.6714,4.682,4.6914,4.6965,4.7038,4.7125,4.7257,4.7229,4.7284,4.7293,4.7363,4.7495,4.7324,4.7326,4.7351,4.7664,4.7683,4.7708,4.7486,4.749,4.7494,4.7656,0,4.6537,4.6723,4.6739,4.6906,4.6994,4.698,4.7072,4.7134,4.7164,4.7243,4.7277,4.7368,4.7326,4.7358,4.7427,4.7465,4.7558,4.7454,4.7565,4.7569,4.7542,4.7737,4.7759,4.7909,4.7677,4.7681,4.7684,0,4.6753,4.683,4.7004,4.7075,4.7113,4.7195,4.7282,4.7359,4.7428,4.7445,4.7505,4.7504,4.7611,4.7545,4.7692,4.762,4.7667,4.7692,4.7699,4.7707,4.7632,4.7748,4.7958,4.7979,4.7718,4.7715,4.7713,0,4.6873,4.7021,4.7143,4.7182,4.7269,4.7326,4.7365,4.743,4.7485,4.7561,4.7596,4.7684,4.7731,4.7799,4.7821,4.7771,4.7965,4.7902,4.798,4.7979,4.8019,4.8016,4.8236,4.8055,4.8055,4.8054,4.8054,0,4.7052,4.7158,4.7198,4.7273,4.7391,4.7409,4.7525,4.7561,4.7619,4.77,4.7694,4.777,4.7796,4.7877,4.7895,4.8011,4.8034,4.8049,4.8052,4.8047,4.8045,4.8076,4.8065,4.806,4.8059,4.8058,4.8057,0,4.7205,4.7236,4.7368,4.7439,4.7459,4.7543,4.7603,4.7675,4.7703,4.7805,4.783,4.7875,4.7968,4.7998,4.8112,4.8124,4.8258,4.8254,4.8234,4.8234,4.8309,4.83,4.8554,4.8587,4.8387,4.8389,4.8391,0,4.7315,4.7396,4.7475,4.7529,4.7569,4.7656,4.7711,4.7732,4.779,4.7874,4.7935,4.8028,4.8102,4.8253,4.8295,4.8381,4.8376,4.846,4.8389,4.8381,4.8373,4.8366,4.8373,4.8472,4.8474,4.8476,4.8477,0,4.7507,4.7517,4.7597,4.7682,4.7748,4.7816,4.7882,4.7926,4.7956,4.8021,4.8116,4.8174,4.8289,4.838,4.8467,4.8506,4.8496,4.8499,4.8521,4.8516,4.8499,4.8505,4.8267,4.8492,4.8491,4.849,4.8489,4.8488,4.764,4.771,4.7775,4.7864,4.7915,4.7976,4.8045,4.8082,4.8162,4.8256,4.8264,4.8366,4.8431,4.8547,4.8591,4.867,4.8646,4.8679,4.8686,4.8693,4.8697,4.8489,4.8687,4.8686,4.8686,4.8685,4.8685,0,4.7827,4.7869,4.795,4.8041,4.811,4.8095,4.8166,4.8224,4.8314,4.8376,4.8449,4.8557,4.8645,4.8693,4.878,4.8834,4.8831,4.8856,4.8851,4.8859,4.8716,4.8686,4.8857,4.8857,4.8857,4.8856,4.8856,4.8856,4.7933,4.805,4.8068,4.8209,4.825,4.8349,4.839,4.8446,4.8495,4.8615,4.8688,4.8719,4.8775,4.8866,4.8945,4.8957,4.8987,4.9014,4.9023,4.8887,4.887,4.8853,4.8825,4.9022,4.9022,4.9159,4.9161,4.9162]},{"header":{"parameterUnit":"m.s-1","parameterCategory":1,"la1":30.2991,"la2":30.254,"lo1":-89.0895,"lo2":-89.0444,"dy":0.0017,"dx":0.0017,"nx":28,"ny":28,"refTime":"2025-06-06T21:00:00:Z","depth":0,"parameterNumber":3,"parameterNumberName":"V-component_of_WINDS"},"data":[0,0,0,0,0,0,0,0,0,0,0,0,0,0,0,0,0,0,0,0,0,0,0,0,0,0,0,0,0,0,0,0,0,0,0,0,0,0,0,0,0,0,0,0,0,0,0,0,0,0,0,0,0,0,0,0,0,0,1.6329,1.633,0,1.639,1.639,1.6391,1.6375,1.6374,1.6372,1.6371,1.6434,1.6437,1.6439,0,0,0,0,0,0,0,0,0,0,0,0,0,1.62,1.6203,1.6329,1.633,1.6331,1.6389,1.639,1.6391,1.6375,1.6373,1.6372,1.6371,1.6433,1.6436,1.644,0,0,0,0,0,0,0,0,0,0,0,0,0,1.6258,1.6204,1.6329,1.633,1.633,1.6389,1.639,1.6391,1.6375,1.6373,1.6372,1.637,1.6432,1.6436,1.644,1.6502,0,0,1.6453,1.6455,0,0,0,0,0,0,0,0,1.6255,1.6263,1.6329,1.633,1.6331,1.6373,1.6368,1.6429,1.6376,1.6358,1.6371,1.6369,1.6415,1.6421,1.6436,1.6505,1.6508,1.6453,1.6456,1.6458,1.6459,0,0,0,0,0,0,0,1.6251,1.626,1.6353,1.633,1.6331,1.6327,1.6333,1.6379,1.6396,1.636,1.6359,1.6366,1.6415,1.6432,1.6437,1.6509,1.6453,1.6457,1.646,1.6461,1.6631,1.6633,0,0,0,0,0,0,1.6246,1.6257,1.6351,1.6355,1.6287,1.6331,1.6338,1.6361,1.6396,1.6399,1.6367,1.6365,1.6426,1.6432,1.6439,1.6514,1.6458,1.6462,1.6464,1.6629,1.6631,1.6634,0,0,0,0,0,0,1.6243,1.6255,1.6349,1.6306,1.6317,1.6335,1.6361,1.6363,1.638,1.6401,1.6404,1.6381,1.6424,1.6434,1.6486,1.6516,1.6464,1.6467,1.6627,1.663,1.6632,1.6663,0,0,0,0,0,0,1.624,1.6254,1.6278,1.6306,1.632,1.6395,1.6363,1.6366,1.6387,1.6384,1.6415,1.6419,1.6424,1.648,1.6491,1.6521,1.6471,1.6624,1.6628,1.6631,1.666,1.6667,1.6673,0,0,0,0,0,1.6235,1.6285,1.6279,1.6291,1.635,1.6397,1.6404,1.6409,1.6389,1.6414,1.6427,1.6418,1.6511,1.6486,1.6497,1.6529,1.6622,1.6627,1.6631,1.6657,1.6666,1.6673,0,0,0,0,0,0,1.626,1.6289,1.6283,1.6343,1.6367,1.6394,1.6425,1.6418,1.6449,1.6446,1.645,1.6457,1.6511,1.6525,1.6497,1.659,1.6564,1.6571,1.6579,1.6588,1.6594,1.659,1.6474,0,0,0,0,0,1.6272,1.6308,1.6331,1.6382,1.6394,1.6407,1.6428,1.6429,1.6455,1.6465,1.6483,1.6508,1.6543,1.6566,1.66,1.6662,1.6668,1.6689,1.6695,1.6701,1.6707,1.674,1.6749,1.6648,1.6648,1.6648,0,0,1.6298,1.6318,1.6341,1.6387,1.6406,1.6443,1.6416,1.6456,1.6483,1.6472,1.6522,1.6536,1.6565,1.6622,1.6648,1.6636,1.6736,1.6707,1.6711,1.6714,1.6745,1.6755,1.6763,1.6651,1.6651,1.665,0,0,1.6365,1.6383,1.6427,1.6447,1.6476,1.6484,1.6494,1.6522,1.653,1.6581,1.6572,1.6604,1.6665,1.6685,1.6703,1.6775,1.6767,1.6786,1.6821,1.6853,1.6861,1.6868,1.6893,1.6902,1.6792,1.6792,1.6792,0,1.6394,1.6448,1.6451,1.6491,1.6511,1.6501,1.6546,1.6564,1.6603,1.6617,1.6602,1.6676,1.6695,1.6757,1.6774,1.6789,1.6801,1.6783,1.686,1.6867,1.6873,1.6897,1.6907,1.6794,1.6794,1.6794,1.6793,0,1.6482,1.652,1.6552,1.6588,1.6612,1.6654,1.6663,1.6687,1.6685,1.6695,1.6746,1.6768,1.6805,1.682,1.6819,1.6881,1.6872,1.6858,1.6832,1.6885,1.6907,1.6917,1.6797,1.6796,1.6796,1.6795,0,0,1.6567,1.6603,1.6615,1.663,1.6661,1.669,1.6731,1.6767,1.6787,1.6813,1.6848,1.6898,1.6885,1.6906,1.6907,1.6935,1.699,1.6918,1.6919,1.693,1.7058,1.7068,1.7079,1.6984,1.6986,1.6988,1.7056,0,1.6635,1.6707,1.671,1.6776,1.681,1.6801,1.6836,1.6859,1.6868,1.6899,1.6909,1.6945,1.6925,1.6938,1.6965,1.6977,1.7016,1.6973,1.7016,1.7018,1.701,1.7091,1.7102,1.7165,1.7065,1.7066,1.7067,0,1.6725,1.6753,1.6822,1.6846,1.6861,1.6893,1.6925,1.6955,1.6979,1.6984,1.7007,1.7004,1.7045,1.7017,1.7074,1.7044,1.7062,1.7071,1.7074,1.7078,1.7046,1.7097,1.7185,1.7195,1.7081,1.708,1.7079,0,1.6779,1.6834,1.6883,1.6897,1.6926,1.6949,1.6962,1.6985,1.7006,1.7034,1.7047,1.708,1.7098,1.7123,1.7129,1.7107,1.7186,1.7158,1.7191,1.7191,1.7208,1.7207,1.73,1.722,1.7219,1.7219,1.7219,0,1.6855,1.6898,1.6907,1.6937,1.6984,1.6986,1.7033,1.7045,1.7065,1.7096,1.709,1.712,1.7125,1.7156,1.7161,1.7207,1.7215,1.722,1.7221,1.7221,1.722,1.7233,1.7228,1.7222,1.7221,1.7221,1.722,0,1.6924,1.6932,1.6984,1.7007,1.7014,1.7047,1.7067,1.7095,1.7103,1.7143,1.7153,1.7166,1.7202,1.721,1.7252,1.7255,1.731,1.7307,1.7302,1.7301,1.7334,1.733,1.7438,1.7452,1.7363,1.7364,1.7364,0,1.6972,1.7004,1.703,1.7051,1.7065,1.7098,1.7119,1.7122,1.7144,1.7174,1.7198,1.7233,1.7261,1.7319,1.7332,1.7364,1.7362,1.7397,1.7366,1.7365,1.7362,1.736,1.7362,1.7403,1.7404,1.7405,1.7405,0,1.7056,1.7058,1.7088,1.7119,1.7144,1.7169,1.7192,1.7209,1.7216,1.7241,1.7277,1.7298,1.7341,1.7376,1.7408,1.7421,1.7415,1.7415,1.7424,1.7424,1.742,1.7422,1.7317,1.7413,1.7412,1.7411,1.7411,1.7411,1.7116,1.7143,1.7166,1.7199,1.7217,1.7239,1.7266,1.7277,1.7307,1.7342,1.7342,1.7382,1.7404,1.7446,1.7462,1.7492,1.7481,1.7495,1.7498,1.7502,1.7504,1.7415,1.7498,1.7498,1.7498,1.7498,1.7498,0,1.7199,1.7213,1.7243,1.7276,1.7302,1.7292,1.7318,1.734,1.7374,1.7396,1.7423,1.7464,1.7497,1.7513,1.7545,1.7567,1.7564,1.7575,1.7573,1.7577,1.7513,1.7501,1.7576,1.7576,1.7576,1.7576,1.7576,1.7576,1.7245,1.7292,1.7296,1.7351,1.7364,1.7402,1.7417,1.7437,1.7454,1.75,1.7527,1.7537,1.7556,1.7589,1.7619,1.7622,1.7635,1.7647,1.7649,1.7589,1.7581,1.7574,1.7563,1.765,1.765,1.771,1.7711,1.7711]}]]